Tacoma, WA
on Wednesday, November 14, 2012

Wednesday
Previous Day Next Day
Daily Summary
 ActualAverage (KSEA)Record (KSEA)
Temperature
Mean Temperature °F 46°F  
Max Temperature 51°F 51°F 65°F (1995)
Min Temperature 33°F 40°F 9°F (1955)
Degree Days
Heating Degree Days 23 19  
Month to date heating degree days 249  
Since 1 July heating degree days 846  
Cooling Degree Days 0 0  
Month to date cooling degree days 0  
Year to date cooling degree days 189  
Moisture
Dew Point 42°F   
Average Humidity 96    
Maximum Humidity 100    
Minimum Humidity 82    
Precipitation
Precipitation 0.00 in 0.23 in 2.61 in (2001)
Month to date precipitation 2.96  
Year to date precipitation 28.53  
Snow
Snow 0.00 in in T in (1963)
Month to date snowfall  
Since 1 July snowfall  
Snow Depth in   
Wind
Wind Speed 3 mph   
Max Wind Speed 8 mph   
Max Gust Speed mph   
Visibility 6 miles   
Events Fog   

Key: T is trace of precipitation, MM is missing value
Source: NWS Daily Summary
Time(PST)TemperatureDew PointHumidity Pressure Visibility Wind DirectionWind SpeedGust SpeedPrecipitationEvents Conditions
12:08 AM 48.2°F 46.4°F 93% 30.18 in 10.0 miles South 3.5 mph - N/A   Overcast
12:13 AM 48.2°F 46.4°F 93% 30.19 in 10.0 miles SSE 3.5 mph - N/A   Overcast
12:39 AM 48.2°F 48.2°F 100% 30.20 in 9.0 miles SSW 3.5 mph - N/A   Light Drizzle
12:41 AM 48.2°F 48.2°F 100% 30.20 in 9.0 miles SSW 3.5 mph - N/A   Light Drizzle
12:49 AM 48.2°F 48.2°F 100% 30.19 in 10.0 miles South 4.6 mph - N/A   Overcast
12:56 AM 48.2°F 48.2°F 100% 30.20 in 10.0 miles South 6.9 mph - N/A   Light Drizzle
12:58 AM 48.2°F 48.2°F 100% 30.22 in 10.0 miles South 6.9 mph - 0.00 in   Light Drizzle
1:03 AM 48.2°F 48.2°F 100% 30.20 in 10.0 miles South 8.1 mph - N/A   Light Drizzle
1:07 AM 48.2°F 48.2°F 100% 30.20 in 10.0 miles South 5.8 mph - N/A   Overcast
1:12 AM 48.2°F 48.2°F 100% 30.20 in 10.0 miles South 5.8 mph - N/A   Overcast
1:17 AM 48.2°F 48.2°F 100% 30.20 in 10.0 miles South 5.8 mph - N/A   Overcast
1:37 AM 48.2°F 46.4°F 93% 30.20 in 10.0 miles SSW 4.6 mph - N/A   Mostly Cloudy
1:42 AM 48.2°F 48.2°F 100% 30.20 in 10.0 miles SSW 3.5 mph - N/A   Mostly Cloudy
1:57 AM 48.2°F 48.2°F 100% 30.20 in 10.0 miles SSW 6.9 mph - N/A   Overcast
1:58 AM 48.2°F 48.0°F 99% 30.22 in 10.0 miles SSW 6.9 mph - 0.00 in   Overcast
2:13 AM 48.2°F 48.2°F 100% 30.21 in 10.0 miles SSW 5.8 mph - N/A   Mostly Cloudy
2:23 AM 48.2°F 48.2°F 100% 30.20 in 10.0 miles South 5.8 mph - N/A   Mostly Cloudy
2:58 AM 46.8°F 46.4°F 99% 30.23 in 10.0 miles South 6.9 mph - N/A   Overcast
3:58 AM 47.8°F 47.7°F 99% 30.23 in 10.0 miles South 5.8 mph - N/A   Overcast
4:58 AM 46.9°F 46.6°F 99% 30.24 in 10.0 miles South 4.6 mph - N/A   Overcast
5:58 AM 47.8°F 46.6°F 95% 30.25 in 10.0 miles SSW 4.6 mph - N/A   Overcast
6:58 AM 46.9°F 46.6°F 99% 30.27 in 10.0 miles Calm Calm - N/A   Overcast
7:13 AM 46.4°F 46.4°F 100% 30.25 in 10.0 miles South 1.2 mph - N/A   Overcast
7:33 AM 46.4°F 46.4°F 100% 30.26 in 10.0 miles Calm Calm - N/A   Overcast
7:43 AM 46.4°F 46.4°F 100% 30.26 in 10.0 miles SSE 1.2 mph - N/A   Overcast
7:48 AM 46.4°F 46.4°F 100% 30.27 in 10.0 miles Calm Calm - N/A   Overcast
7:58 AM 46.9°F 46.8°F 99% 30.29 in 10.0 miles Calm Calm - N/A   Overcast
8:43 AM 48.2°F 48.2°F 100% 30.28 in 10.0 miles WSW 3.5 mph - N/A   Overcast
8:49 AM 48.2°F 48.2°F 100% 30.28 in 10.0 miles WSW 2.3 mph - N/A   Overcast
8:58 AM 48.6°F 48.0°F 98% 30.30 in 10.0 miles SSW 2.3 mph - N/A   Overcast
9:18 AM 48.2°F 48.2°F 100% 30.29 in 10.0 miles West 3.5 mph - N/A   Overcast
9:33 AM 48.2°F 48.2°F 100% 30.29 in 10.0 miles West 5.8 mph - N/A   Overcast
9:53 AM 50.0°F 48.2°F 94% 30.30 in 10.0 miles NW 2.3 mph - N/A   Overcast
9:58 AM 49.3°F 47.8°F 95% 30.32 in 10.0 miles Variable 1.2 mph - N/A   Overcast
10:46 AM 50.0°F 46.4°F 87% 30.31 in 10.0 miles Variable 3.5 mph - N/A   Overcast
10:47 AM 50.0°F 46.4°F 87% 30.31 in 10.0 miles Variable 4.6 mph - N/A   Overcast
10:53 AM 50.0°F 48.2°F 94% 30.31 in 10.0 miles NNW 4.6 mph - N/A   Overcast
10:56 AM 50.0°F 48.2°F 94% 30.31 in 10.0 miles NW 5.8 mph - N/A   Overcast
11:12 AM 50.0°F 46.4°F 87% 30.31 in 10.0 miles NW 4.6 mph - N/A   Overcast
11:20 AM 50.0°F 46.4°F 87% 30.31 in 10.0 miles WNW 4.6 mph - N/A   Overcast
11:30 AM 50.0°F 46.4°F 87% 30.31 in 10.0 miles Variable 3.5 mph - N/A   Overcast
11:56 AM 50.0°F 46.4°F 87% 30.31 in 10.0 miles NW 3.5 mph - N/A   Overcast
12:00 PM 50.0°F 46.4°F 87% 30.31 in 10.0 miles NW 3.5 mph - N/A   Overcast
12:04 PM 50.0°F 46.4°F 87% 30.31 in 10.0 miles Variable 3.5 mph - N/A   Overcast
12:10 PM 50.0°F 46.4°F 87% 30.31 in 10.0 miles NNW 4.6 mph - N/A   Overcast
12:55 PM - 46.2°F N/A% 30.32 in - NNE 4.6 mph - N/A   Unknown
12:56 PM 50.0°F 46.4°F 87% 30.32 in 10.0 miles NNE 5.8 mph - N/A   Overcast
1:34 PM 50.0°F 46.4°F 87% 30.32 in 10.0 miles NE 3.5 mph - N/A   Overcast
1:45 PM 51.8°F 46.4°F 82% 30.31 in 10.0 miles NE 3.5 mph - N/A   Overcast
1:55 PM 51.3°F 46.0°F 82% 30.31 in 10.0 miles NNW 4.6 mph - N/A   Overcast
2:00 PM 51.8°F 46.4°F 82% 30.31 in 10.0 miles Calm Calm - N/A   Overcast
2:27 PM 51.8°F 46.4°F 82% 30.31 in 10.0 miles North 4.6 mph - N/A   Overcast
2:48 PM 51.8°F 46.4°F 82% 30.30 in 10.0 miles NNW 5.8 mph - N/A   Overcast
2:55 PM 51.1°F 45.9°F 82% 30.31 in 10.0 miles NNW 8.1 mph - N/A   Overcast
2:58 PM 51.1°F 45.9°F 82% 30.32 in 10.0 miles North 6.9 mph - N/A   Overcast
3:56 PM 50.0°F 46.4°F 87% 30.31 in 10.0 miles NNE 5.8 mph - N/A   Overcast
4:58 PM 48.2°F 44.6°F 87% 30.33 in 10.0 miles NE 2.3 mph - N/A   Overcast
5:58 PM 45.3°F 42.8°F 91% 30.32 in 10.0 miles ENE 1.2 mph - N/A   Clear
6:58 PM 43.5°F 43.2°F 99% 30.32 in 10.0 miles Calm Calm - N/A   Clear
7:43 PM 37.4°F 37.4°F 100% 30.30 in 2.5 miles Calm Calm - N/A   Clear
7:48 PM 39.2°F 37.4°F 93% 30.30 in 1.0 miles Calm Calm - N/A   Clear
7:53 PM 39.2°F 37.4°F 93% 30.30 in 0.8 miles North 1.2 mph - N/A   Clear
7:58 PM 39.2°F 38.8°F 99% 30.32 in 1.2 miles Calm Calm - N/A   Clear
8:03 PM 39.2°F 39.2°F 100% 30.30 in 2.0 miles Calm Calm - N/A   Clear
8:08 PM 39.2°F 39.2°F 100% 30.30 in 7.0 miles Calm Calm - N/A   Clear
8:18 PM 37.4°F 37.4°F 100% 30.30 in 1.8 miles SE 2.3 mph - N/A   Clear
8:23 PM 37.4°F 37.4°F 100% 30.30 in 0.5 miles SSE 2.3 mph - N/A Fog Fog
8:28 PM 37.4°F 37.4°F 100% 30.30 in 0.5 miles SE 1.2 mph - N/A Fog Fog
8:33 PM 37.4°F 37.4°F 100% 30.30 in 0.5 miles SSE 2.3 mph - N/A Fog Fog
8:38 PM 35.6°F 35.6°F 100% 30.30 in 0.5 miles SE 2.3 mph - N/A Fog Fog
8:43 PM 35.6°F 35.6°F 100% 30.30 in 0.8 miles North - - N/A   Clear
8:48 PM 35.6°F 35.6°F 100% 30.30 in 0.5 miles Calm Calm - N/A Fog Fog
8:53 PM 37.4°F 35.6°F 93% 30.30 in 0.5 miles Calm Calm - N/A Fog Fog
8:58 PM 37.2°F 37.0°F 99% 30.32 in 0.5 miles Calm Calm - N/A Fog Fog
9:03 PM 37.4°F 37.4°F 100% 30.30 in 0.5 miles Calm Calm - N/A Fog Fog
9:08 PM 35.6°F 35.6°F 100% 30.30 in 0.8 miles Calm Calm - N/A   Clear
9:23 PM 37.4°F 37.4°F 100% 30.30 in 0.8 miles Calm Calm - N/A   Clear
9:28 PM 35.6°F 35.6°F 100% 30.30 in 1.0 miles Calm Calm - N/A   Clear
9:33 PM 35.6°F 35.6°F 100% 30.30 in 1.2 miles North 2.3 mph - N/A   Clear
9:38 PM 35.6°F 33.8°F 93% 30.30 in 0.8 miles Calm Calm - N/A   Clear
9:43 PM 35.6°F 35.6°F 100% 30.29 in 0.5 miles Calm Calm - N/A Fog Fog
9:48 PM 35.6°F 35.6°F 100% 30.30 in 0.5 miles Calm Calm - N/A Fog Fog
9:53 PM 35.6°F 35.6°F 100% 30.29 in 0.5 miles Variable 1.2 mph - N/A Fog Fog
9:58 PM 36.5°F 36.3°F 99% 30.31 in 0.5 miles South 2.3 mph - N/A Fog Fog
10:03 PM 35.6°F 35.6°F 100% 30.29 in 1.0 miles SE 2.3 mph - N/A   Clear
10:13 PM 33.8°F 33.8°F 100% 30.29 in 1.2 miles East 2.3 mph - N/A   Clear
10:23 PM 35.6°F 35.6°F 100% 30.29 in 1.0 miles East 1.2 mph - N/A   Clear
10:28 PM 35.6°F 35.6°F 100% 30.29 in 0.5 miles ENE 2.3 mph - N/A Fog Fog
10:33 PM 35.6°F 35.6°F 100% 30.29 in 0.8 miles Variable 2.3 mph - N/A   Clear
10:38 PM 35.6°F 35.6°F 100% 30.29 in 2.5 miles ESE 2.3 mph - N/A   Clear
10:43 PM 35.6°F 35.6°F 100% 30.29 in 5.0 miles ENE 3.5 mph - N/A   Clear
10:58 PM 35.6°F 35.6°F 100% 30.28 in 1.8 miles Calm Calm - N/A   Clear
11:03 PM 35.6°F 35.6°F 100% 30.28 in 1.5 miles Calm Calm - N/A   Clear
11:08 PM 35.6°F 35.6°F 100% 30.28 in 1.0 miles Calm Calm - N/A   Clear
11:13 PM 35.6°F 35.6°F 100% 30.28 in 0.5 miles Variable 1.2 mph - N/A Fog Fog
11:18 PM 35.6°F 35.6°F 100% 30.28 in 0.5 miles Calm Calm - N/A Fog Fog
11:23 PM 35.6°F 35.6°F 100% 30.27 in 0.5 miles Calm Calm - N/A Fog Fog
11:28 PM 33.8°F 33.8°F 100% 30.27 in 0.5 miles Calm Calm - N/A Fog Fog
11:33 PM 33.8°F 33.8°F 100% 30.27 in 0.5 miles South 2.3 mph - N/A Fog Fog
11:38 PM 33.8°F 33.8°F 100% 30.27 in 0.2 miles South 2.3 mph - N/A Fog Fog
11:48 PM 33.8°F 32.0°F 93% 30.27 in 0.5 miles SSW 1.2 mph - N/A Fog Fog
11:53 PM 33.8°F 33.8°F 100% 30.27 in 0.2 miles Calm Calm - N/A Fog Fog
11:58 PM 34.7°F 34.5°F 99% 30.27 in 0.2 miles South 2.3 mph - N/A Fog Fog
Moon Phase
Nov. 14 Nov. 20 Nov. 28 Dec. 06 Dec. 13
Sunrise:07:13 AM (PST) Moon Rise:08:12 AM (PST)11/14
Sunset:04:35 PM (PST) Moon Set:05:24 PM (PST)11/14

Copyright © 2014 The Weather Underground, Inc.